Location: Banff
(51.1667°N, 115.5667°W)
Time: 11:23:17
(UTC+00:00)

SR - Pass Details

Date: 02 December 2020
Orbit: 575 x 880 km, 66.7° (Epoch: 20 January)

Event Time Altitude Azimuth Distance (km) Brightness Sun altitude
Rises 02:11:15 0° 224° (SW) 2,828 ? -23.1°
Reaches altitude 10° 02:13:26 10° 228° (SW) 1,957 ? -23.4°
Maximum altitude 02:17:48 67° 311° (NW) 695 ? -24.1°
Enters shadow 02:18:34 56° 3° (N) 772 ? -24.2°
